Troy, MI

5:58 PM EDT on March 27, 2017 (GMT -0400)
Troy

Weather History for KVLL - November, 2013

Change the Weather History Date:

Wednesday, November 6, 2013

  Actual Average (KDET) Record (KDET)
Temperature  
Mean Temperature 51 °F -  
Max Temperature 57 °F 50 °F 75 °F (1975)
Min Temperature 45 °F 37 °F 20 °F (1951)
Degree Days  
Heating Degree Days 14    
Growing Degree Days 1 (Base 50)    
Moisture  
Dew Point 46 °F    
Average Humidity 75    
Maximum Humidity 88    
Minimum Humidity 59    
Precipitation  
Precipitation 0.00 in - - ()
Sea Level Pressure  
Sea Level Pressure 29.97 in    
Wind  
Wind Speed 11 mph (SSW)    
Max Wind Speed 22 mph    
Max Gust Speed 32 mph    
Visibility 9 miles    
Events Rain    
Averages and records for this station are not official NWS values.
T = Trace of Precipitation, MM = Missing Value Source: NWS Daily Summary

Daily Weather History Graph

Daily Weather History Graph

Search for Another Location

Airport or City:

Trip Planner

Search our weather history database for the weather conditions in past years. The results will help you decide how hot, cold, wet, or windy it might be!

Date:

Astronomy

Nov. 06, 2013 Rise Set
Actual Time 7:12 AM EST 5:19 PM EST
Civil Twilight 6:43 AM EST 5:48 PM EST
Nautical Twilight 6:09 AM EST 6:22 PM EST
Astronomical Twilight 5:36 AM EST 6:55 PM EST
Moon 10:28 AM EST (11/6) 8:20 PM EST (11/6)
Length of Visible Light 11h 05m
Length of Day
10h 06m
Waxing Crescent, 13% of the Moon is Illuminated
Nov 6
Waxing Crescent
Nov 10
First Quarter
Nov 17
Full
Nov 25
Last Quarter
Dec 2
New

Hourly Weather History & Observations

Time (EST) Temp. Windchill Dew Point Humidity Pressure Visibility Wind Dir Wind Speed Gust Speed Precip Events Conditions
12:15 AM 53.6 °F - 43.2 °F 68% 30.20 in 10.0 mi South 5.8 mph - N/A   Scattered Clouds
12:34 AM 53.6 °F - 43.0 °F 67% 30.19 in 10.0 mi South 9.2 mph - N/A   Clear
12:55 AM 53.6 °F - 42.8 °F 67% 30.18 in 10.0 mi South 8.1 mph - N/A   Clear
1:14 AM 54.0 °F - 42.3 °F 65% 30.17 in 10.0 mi South 9.2 mph - N/A   Clear
1:35 AM 54.0 °F - 41.9 °F 64% 30.16 in 10.0 mi South 10.4 mph - N/A   Clear
1:54 AM 54.0 °F - 41.9 °F 64% 30.15 in 10.0 mi South 8.1 mph - N/A   Scattered Clouds
2:15 AM 53.8 °F - 41.4 °F 63% 30.14 in 10.0 mi South 8.1 mph - N/A   Scattered Clouds
2:34 AM 54.0 °F - 41.2 °F 62% 30.14 in 10.0 mi South 8.1 mph - N/A   Mostly Cloudy
2:55 AM 54.0 °F - 41.2 °F 62% 30.13 in 10.0 mi South 10.4 mph - N/A   Overcast
3:15 AM 54.0 °F - 41.0 °F 62% 30.12 in 10.0 mi South 9.2 mph - N/A   Mostly Cloudy
3:34 AM 54.0 °F - 40.8 °F 61% 30.11 in 10.0 mi South 8.1 mph - N/A   Overcast
3:55 AM 54.1 °F - 40.3 °F 59% 30.10 in 10.0 mi South 9.2 mph - N/A   Overcast
4:14 AM 54.3 °F - 40.1 °F 59% 30.09 in 10.0 mi South 6.9 mph - N/A   Overcast
4:35 AM 53.6 °F - 41.0 °F 62% 30.08 in 10.0 mi South 6.9 mph - N/A Rain Light Rain
4:54 AM 54.1 °F - 40.3 °F 59% 30.07 in 10.0 mi South 8.1 mph - N/A   Overcast
5:15 AM 53.8 °F - 40.8 °F 62% 30.06 in 10.0 mi South 6.9 mph - N/A   Overcast
5:34 AM 54.0 °F - 40.6 °F 61% 30.06 in 10.0 mi South 6.9 mph - N/A   Overcast
5:54 AM 54.1 °F - 40.5 °F 60% 30.05 in 10.0 mi South 11.5 mph - N/A   Overcast
6:14 AM 54.5 °F - 40.5 °F 59% 30.03 in 10.0 mi South 8.1 mph - N/A   Overcast
6:34 AM 54.5 °F - 40.6 °F 60% 30.03 in 10.0 mi South 10.4 mph - N/A   Overcast
6:54 AM 54.5 °F - 41.0 °F 60% 30.02 in 10.0 mi South 9.2 mph - N/A   Overcast
7:14 AM 54.7 °F - 41.2 °F 60% 30.01 in 10.0 mi South 8.1 mph - N/A   Overcast
7:35 AM 54.5 °F - 42.4 °F 64% 30.00 in 10.0 mi South 11.5 mph - N/A Rain Light Rain
7:54 AM 54.7 °F - 43.2 °F 65% 30.00 in 10.0 mi South 11.5 mph 16.1 mph N/A   Overcast
8:15 AM 55.0 °F - 43.3 °F 65% 30.00 in 10.0 mi South 12.7 mph 16.1 mph N/A   Overcast
8:34 AM 54.0 °F - 45.1 °F 72% 30.00 in 10.0 mi South 10.4 mph - N/A Rain Light Rain
8:54 AM 53.6 °F - 46.0 °F 76% 30.00 in 10.0 mi SSW 9.2 mph - N/A Rain Light Rain
9:14 AM 52.7 °F - 47.3 °F 82% 29.99 in 5.0 mi South 11.5 mph - N/A Rain Rain
9:34 AM 52.3 °F - 48.4 °F 86% 29.98 in 5.0 mi South 9.2 mph - N/A Rain Rain
9:54 AM 52.9 °F - 49.3 °F 88% 29.98 in 5.0 mi SSW 9.2 mph - N/A Rain Light Rain
10:14 AM 53.6 °F - 50.0 °F 88% 29.97 in 7.0 mi SSW 8.1 mph - N/A Rain Rain
10:35 AM 54.5 °F - 50.9 °F 88% 29.97 in 10.0 mi SSW 10.4 mph 16.1 mph N/A Rain Rain
10:54 AM 54.7 °F - 50.7 °F 86% 29.96 in 7.0 mi SSW 12.7 mph 18.4 mph N/A Rain Light Rain
11:14 AM 55.4 °F - 50.9 °F 85% 29.95 in 10.0 mi SSW 11.5 mph 20.7 mph N/A   Light Drizzle
11:34 AM 55.8 °F - 50.9 °F 84% 29.94 in 10.0 mi SSW 13.8 mph 21.9 mph N/A   Light Drizzle
11:54 AM 56.3 °F - 50.9 °F 82% 29.93 in 10.0 mi SSW 16.1 mph 23.0 mph N/A Rain Rain
12:14 PM 56.5 °F - 50.4 °F 80% 29.91 in 10.0 mi SSW 11.5 mph 21.9 mph N/A   Light Drizzle
12:34 PM 56.7 °F - 50.4 °F 79% 29.90 in 10.0 mi SSW 16.1 mph 24.2 mph N/A Rain Rain
12:54 PM 56.5 °F - 50.7 °F 81% 29.89 in 10.0 mi SSW 13.8 mph 25.3 mph N/A Rain Light Rain
1:14 PM 57.2 °F - 50.7 °F 79% 29.87 in 10.0 mi SSW 12.7 mph 21.9 mph N/A   Overcast
1:35 PM 57.2 °F - 50.4 °F 78% 29.86 in 7.0 mi SSW 15.0 mph 20.7 mph N/A   Overcast
1:54 PM 57.2 °F - 50.5 °F 78% 29.86 in 10.0 mi SSW 16.1 mph 25.3 mph N/A Rain Light Rain
2:14 PM 57.2 °F - 50.9 °F 79% 29.86 in 10.0 mi SSW 11.5 mph 18.4 mph N/A Rain Rain
2:34 PM 56.5 °F - 51.8 °F 84% 29.86 in 7.0 mi SSW 18.4 mph 24.2 mph N/A Rain Light Rain
2:54 PM 56.3 °F - 52.2 °F 86% 29.85 in 10.0 mi SSW 15.0 mph 24.2 mph N/A Rain Light Rain
3:15 PM 56.5 °F - 52.0 °F 85% 29.83 in 10.0 mi SSW 21.9 mph 28.8 mph N/A   Overcast
3:34 PM 56.8 °F - 51.8 °F 83% 29.84 in 10.0 mi SSW 18.4 mph 27.6 mph N/A   Overcast
3:54 PM 57.2 °F - 51.8 °F 82% 29.86 in 10.0 mi SW 21.9 mph 32.2 mph N/A   Overcast
4:14 PM 56.8 °F - 52.0 °F 84% 29.85 in 10.0 mi SW 20.7 mph 26.5 mph N/A   Overcast
4:35 PM 56.7 °F - 52.0 °F 84% 29.86 in 10.0 mi SW 17.3 mph 24.2 mph N/A   Overcast
4:54 PM 56.7 °F - 52.0 °F 84% 29.85 in 10.0 mi SW 15.0 mph 28.8 mph N/A   Overcast
5:15 PM 57.2 °F - 51.8 °F 82% 29.85 in 10.0 mi SW 13.8 mph 25.3 mph N/A   Overcast
5:34 PM 57.2 °F - 51.8 °F 82% 29.85 in 10.0 mi SW 13.8 mph 21.9 mph N/A   Overcast
5:54 PM 57.2 °F - 51.8 °F 82% 29.85 in 10.0 mi SW 12.7 mph 20.7 mph N/A   Overcast
6:14 PM 57.2 °F - 51.8 °F 82% 29.85 in 10.0 mi SW 11.5 mph 20.7 mph N/A   Overcast
6:34 PM 57.4 °F - 51.8 °F 82% 29.86 in 10.0 mi SW 11.5 mph 20.7 mph N/A   Overcast
6:54 PM 57.4 °F - 51.8 °F 82% 29.85 in 10.0 mi SW 13.8 mph 18.4 mph N/A   Overcast
7:14 PM 57.4 °F - 52.0 °F 82% 29.86 in 10.0 mi SW 12.7 mph 18.4 mph N/A   Overcast
7:34 PM 57.2 °F - 52.0 °F 83% 29.87 in 7.0 mi SW 10.4 mph 18.4 mph N/A   Overcast
7:54 PM 55.0 °F - 49.8 °F 83% 29.89 in 5.0 mi West 21.9 mph 32.2 mph N/A Rain Light Rain
8:14 PM 51.8 °F - 46.8 °F 83% 29.91 in 10.0 mi West 16.1 mph 26.5 mph N/A   Overcast
8:34 PM 50.2 °F - 45.0 °F 82% 29.92 in 10.0 mi West 15.0 mph 24.2 mph N/A   Overcast
8:54 PM 49.6 °F - 44.8 °F 83% 29.92 in 10.0 mi WNW 11.5 mph 21.9 mph N/A   Overcast
9:14 PM 49.5 °F - 43.5 °F 80% 29.93 in 10.0 mi West 15.0 mph 24.2 mph N/A   Overcast
9:35 PM 49.1 °F - 43.2 °F 80% 29.96 in 10.0 mi WNW 12.7 mph 19.6 mph N/A   Overcast
9:54 PM 48.6 °F - 42.6 °F 80% 29.95 in 10.0 mi WNW 17.3 mph 21.9 mph N/A   Overcast
10:15 PM 48.2 °F - 41.2 °F 77% 29.95 in 10.0 mi NW 13.8 mph 18.4 mph N/A   Overcast
10:34 PM 47.1 °F - 41.4 °F 80% 29.95 in 7.0 mi NNW 15.0 mph 25.3 mph N/A   Overcast
10:54 PM 45.5 °F 40.3 °F 40.3 °F 82% 29.98 in 10.0 mi NW 10.4 mph 20.7 mph N/A   Overcast
11:14 PM 45.5 °F 40.3 °F 40.6 °F 83% 30.00 in 7.0 mi WNW 10.4 mph 21.9 mph N/A   Overcast
11:34 PM 45.5 °F 39.9 °F 39.0 °F 78% 30.00 in 10.0 mi WNW 11.5 mph 17.3 mph N/A   Overcast
11:54 PM 45.1 °F 39.5 °F 38.1 °F 76% 30.01 in 10.0 mi WNW 11.5 mph 16.1 mph N/A   Scattered Clouds